Regional Weather Roundup
Issued by NWS Northern Indiana

Home | Current Version | Previous Version | Text Only | Print | Product List | Glossary Off
Versions: 1 2 3 4 5 6 7 8 9 10 11 12 13 14 15 16 17 18 19 20 21 22 23 24 25 26 27 28 29 30 31 32 33 34 35 36 37 38 39 40 41 42 43 44 45 46 47 48 49 50

000
ASUS43 KIWX 171659
RWRIWX

KIWX WEATHER ROUNDUP
NATIONAL WEATHER SERVICE NORTHERN INDIANA
1200 PM EST WED DEC 17 2014

NOTE: "FAIR" INDICATES FEW OR NO CLOUDS BELOW 12,000 FEET WITH NO
SIGNIFICANT WEATHER AND/OR OBSTRUCTIONS TO VISIBILITY.

* THESE STATIONS ARE NOT UNDER NWS QUALITY CONTROL. THEY ALSO MAY NOT
  REPORT WEATHER SUCH AS PRECIPITATION OR FOG.

INZ001>027-171800-
NORTHERN INDIANA

CITY           SKY/WX    TMP DP  RH WIND       PRES   REMARKS
GARY*          CLOUDY    28  19  69 W12       30.26S WCI  18
SOUTH BEND     CLOUDY    28  22  78 W14       30.20S WCI  17
ELKHART*       CLOUDY    28  21  74 W14G20    30.19F WCI  17
GOSHEN         CLOUDY    28  22  78 W15       30.19S WCI  16
FORT WAYNE     FLURRIES  28  23  81 W15G24    30.20S WCI  16

$$

INZ028>050-171800-
CENTRAL INDIANA

CITY           SKY/WX    TMP DP  RH WIND       PRES   REMARKS
LAFAYETTE      CLOUDY    23  19  85 W9        30.27F WCI  13
KOKOMO*        CLOUDY    27  21  80 W15G22    30.24F WCI  15
MUNCIE*        CLOUDY    26  22  84 W14       30.22F WCI  14
INDIANAPOLIS   CLOUDY    25  20  81 W10       30.25F WCI  15

$$

MIZ043>046-050>051-056>058-064>065-071>073-077>080-171800-
SOUTHWEST LOWER MICHIGAN

CITY           SKY/WX    TMP DP  RH WIND       PRES   REMARKS
BATTLE CREEK   CLOUDY    30  22  72 W16G24    30.12F WCI  19
BENTON HARBOR  CLOUDY    28  20  71 W15G21    30.19F WCI  16
COLDWATER*     CLOUDY    28  23  80 W15G22    30.13F WCI  17
HILLSDALE*     CLOUDY    29  25  84 W12G24    30.10F WCI  19
HOLLAND        FLURRIES  32  22  66 W9        30.15F WCI  24
GRAND RAPIDS   FLURRIES  30  21  69 W17       30.11F WCI  18
KALAMAZOO      CLOUDY    29  21  72 W14G21    30.14F WCI  18
STURGIS*       CLOUDY    27  23  86 W15G21    30.15F WCI  15
THREE RIVERS*  CLOUDY    28  22  77 W14G22    30.16F WCI  17

$$

OHZ001>008-015>018-024>025-171800-
NORTHWEST OHIO

CITY           SKY/WX    TMP DP  RH WIND       PRES   REMARKS
FINDLAY        CLOUDY    32  24  72 W20       30.14F WCI  20
TOLEDO EXPRESS CLOUDY    30  23  75 W18       30.13F WCI  18
TOLEDO METCALF CLOUDY    32  23  69 W18       30.13F WCI  20
LIMA             N/A    N/A N/A N/A MISG      30.17S

$$



USA.gov is the U.S. government's official web portal to all federal, state and local government web resources and services.